This is the latest recevied weather packets stored in our database for station/object KJ5BMY-13. If no packets are shown the sender has not sent any weather packets the latest 1 day(s).
| Time | Temp. | Humidity | Pressure | Rain* | Wind** | Luminosity | Snow |
|---|---|---|---|---|---|---|---|
| 1778031567 | 23.89° C | 67% | 1007.9 hPa | 0 mm | 0.89 m/s, 9° | - | - |
| 1778031265 | 23.89° C | 67% | 1007.7 hPa | 0 mm | 0 m/s | - | - |
| 1778030961 | 23.89° C | 66% | 1008 hPa | 0 mm | 0 m/s | - | - |
| 1778030658 | 23.89° C | 65% | 1007.9 hPa | 0 mm | 0 m/s | - | - |
| 1778030355 | 23.89° C | 66% | 1008.2 hPa | 0 mm | 0.45 m/s, 244° | - | - |
| 1778030052 | 24.44° C | 67% | 1007.9 hPa | 0 mm | 0.45 m/s, 326° | - | - |
| 1778029749 | 24.44° C | 68% | 1007.6 hPa | 0 mm | 0 m/s | - | - |
| 1778029447 | 24.44° C | 68% | 1007.7 hPa | 0 mm | 0 m/s | - | - |
| 1778029144 | 25.56° C | 67% | 1007.7 hPa | 0 mm | 0 m/s | - | - |
| 1778028841 | 25.56° C | 66% | 1007.5 hPa | 0 mm | 0 m/s | - | - |
| 1778028536 | 25.56° C | 65% | 1007.7 hPa | 0 mm | 0 m/s | - | - |
| 1778028235 | 26.11° C | 64% | 1007.5 hPa | 0 mm | 0 m/s | - | - |
| 1778027930 | 26.11° C | 64% | 1007.3 hPa | 0 mm | 0 m/s | - | - |
| 1778027627 | 26.67° C | 63% | 1007.2 hPa | 0 mm | 0 m/s | - | - |
| 1778027323 | 26.67° C | 62% | 1007 hPa | 0 mm | 0 m/s | - | - |
| 1778027020 | 27.22° C | 62% | 1007.3 hPa | 0 mm | 0 m/s | - | - |
| 1778026715 | 27.22° C | 62% | 1007.5 hPa | 0 mm | 0.45 m/s, 32° | - | - |
| 1778026413 | 27.78° C | 61% | 1007.4 hPa | 0 mm | 0 m/s | - | - |
| 1778026109 | 27.78° C | 60% | 1007.4 hPa | 0 mm | 0.45 m/s, 265° | - | - |
| 1778025807 | 27.78° C | 60% | 1006.8 hPa | 0 mm | 0 m/s | - | - |
| 1778025504 | 28.33° C | 59% | 1006.6 hPa | 0 mm | 0 m/s | - | - |
| 1778025201 | 28.89° C | 58% | 1006.3 hPa | 0 mm | 0.45 m/s, 329° | - | - |
| 1778024898 | 29.44° C | 55% | 1006.7 hPa | 0 mm | 0 m/s | - | - |
| 1778024596 | 29.44° C | 52% | 1006.6 hPa | 0 mm | 0 m/s | - | - |
| 1778024293 | 29.44° C | 51% | 1006.6 hPa | 0 mm | 0.45 m/s, 303° | - | - |
* Rain latest hour (hover to see other rain measurements)
** Current wind speed in m/s (hover to see current wind gust speed)